San Antonio, TX

12:09 AM CST on February 26, 2017 (GMT -0600)
Stinson Municipal

Weather History for KSSF - May, 2013

Change the Weather History Date:

Wednesday, May 22, 2013

  Actual Average Record
Temperature  
Mean Temperature 78 °F -  
Max Temperature 91 °F 87 °F 98 °F (1998)
Min Temperature 66 °F 66 °F 33 °F (1997)
Cooling Degree Days 13    
Growing Degree Days 28 (Base 50)    
Moisture  
Dew Point 64 °F    
Average Humidity 65    
Maximum Humidity 88    
Minimum Humidity 48    
Precipitation  
Precipitation 0.00 in - - ()
Sea Level Pressure  
Sea Level Pressure 29.83 in    
Wind  
Wind Speed 7 mph (East)    
Max Wind Speed 13 mph    
Max Gust Speed -    
Visibility 8 miles    
Events      
Averages and records for this station are not official NWS values.
T = Trace of Precipitation, MM = Missing Value Source: NWS Daily Summary

Daily Weather History Graph

Daily Weather History Graph

Search for Another Location

Airport or City:

Trip Planner

Search our weather history database for the weather conditions in past years. The results will help you decide how hot, cold, wet, or windy it might be!

Date:

Astronomy

May. 22, 2013 Rise Set
Actual Time 6:37 AM CDT 8:23 PM CDT
Civil Twilight 6:11 AM CDT 8:49 PM CDT
Nautical Twilight 5:39 AM CDT 9:21 PM CDT
Astronomical Twilight 5:06 AM CDT 9:55 PM CDT
Moon 5:57 PM CDT (5/22) 4:30 AM CDT (5/22)
Length of Visible Light 14h 38m
Length of Day
13h 45m
Waxing Gibbous, 91% of the Moon is Illuminated
May 22
Waxing Gibbous
May 24
Full
May 31
Last Quarter
Jun 8
New
Jun 16
First Quarter

Hourly Weather History & Observations

Time (CDT) Temp. Heat Index Dew Point Humidity Pressure Visibility Wind Dir Wind Speed Gust Speed Precip Events Conditions
12:15 AM 71.6 °F - 68.0 °F 88% 29.85 in 10.0 mi NE 8.1 mph - 0.00 in   Mostly Cloudy
12:53 AM 72.0 °F - 66.0 °F 81% 29.82 in 10.0 mi ENE 8.1 mph - 0.00 in   Overcast
1:53 AM 73.0 °F - 60.1 °F 64% 29.82 in 10.0 mi NE 9.2 mph - N/A   Overcast
2:53 AM 71.1 °F - 57.0 °F 61% 29.81 in 10.0 mi NNE 4.6 mph - N/A   Mostly Cloudy
3:53 AM 70.0 °F - 55.9 °F 61% 29.80 in 10.0 mi NE 5.8 mph - N/A   Clear
4:53 AM 66.9 °F - 57.9 °F 73% 29.81 in 10.0 mi SE 4.6 mph - N/A   Clear
5:53 AM 66.0 °F - 61.0 °F 84% 29.81 in 10.0 mi Calm Calm - N/A   Clear
6:53 AM 66.0 °F - 61.0 °F 84% 29.83 in 10.0 mi NNE 4.6 mph - N/A   Clear
7:53 AM 68.0 °F - 61.0 °F 78% 29.84 in 10.0 mi ENE 4.6 mph - N/A   Clear
8:53 AM 72.0 °F - 60.1 °F 66% 29.86 in 10.0 mi ENE 8.1 mph - N/A   Mostly Cloudy
9:53 AM 73.9 °F - 61.0 °F 64% 29.87 in 10.0 mi NE 6.9 mph - N/A   Overcast
10:30 AM 75.2 °F - 62.6 °F 65% 29.91 in 9.0 mi NE 8.1 mph - N/A   Overcast
10:53 AM 75.9 °F - 63.0 °F 64% 29.88 in 8.0 mi ENE 8.1 mph - N/A   Overcast
11:53 AM 78.1 °F - 63.0 °F 60% 29.89 in 10.0 mi East 4.6 mph - N/A   Overcast
12:53 PM 79.0 °F - 64.0 °F 60% 29.89 in 10.0 mi Calm Calm - N/A   Overcast
1:29 PM 80.6 °F 82.3 °F 64.4 °F 58% 29.91 in 10.0 mi SE 5.8 mph - N/A   Overcast
1:53 PM 81.0 °F 83.0 °F 66.0 °F 60% 29.87 in 10.0 mi ESE 3.5 mph - N/A   Overcast
2:53 PM 84.9 °F 87.6 °F 66.9 °F 55% 29.84 in 5.0 mi Variable 4.6 mph - N/A   Haze
3:53 PM 88.0 °F 91.4 °F 68.0 °F 51% 29.81 in 7.0 mi SE 8.1 mph - N/A   Clear
4:53 PM 88.0 °F 91.4 °F 68.0 °F 51% 29.78 in 7.0 mi SE 5.8 mph - N/A   Clear
5:53 PM 90.0 °F 93.6 °F 68.0 °F 48% 29.76 in 7.0 mi East 8.1 mph - N/A   Clear
6:53 PM 88.0 °F 91.4 °F 68.0 °F 51% 29.75 in 6.0 mi ESE 9.2 mph - N/A   Haze
7:53 PM 87.1 °F 91.3 °F 69.1 °F 55% 29.76 in 6.0 mi ESE 5.8 mph - N/A   Haze
8:53 PM 84.9 °F 88.8 °F 69.1 °F 59% 29.78 in 5.0 mi East 5.8 mph - N/A   Haze
9:53 PM 82.9 °F 87.0 °F 70.0 °F 65% 29.81 in 5.0 mi SE 12.7 mph - N/A   Haze
10:53 PM 80.1 °F 83.2 °F 70.0 °F 71% 29.85 in 6.0 mi SE 10.4 mph - N/A   Haze
11:53 PM 78.1 °F - 70.0 °F 76% 29.87 in 6.0 mi SSE 6.9 mph - N/A   Haze